STARLINK-1478, 45755

Orbit data source: Space-Track

STARLINK-1478, 45755 is a payload satellite owned by SpaceX/Seattle (US) in LEO that was launched on Sat, 13 Jun 2020 UTC via an FALCON 9 launch vehicle from the Air Force Eastern Test Range (AFETR). Payload-class satellites include a variety of spacecraft equipped with specific instruments for various scientific and technological missions. These include communications satellites like Starlink; space stations such as the ISS; scientific satellites like the Hubble; Earth observation satellites from companies like Planet Labs, Umbra, and HawkEye 360; GPS; miniature CubeSats for education and research; and military/defense satellites.

Loading next visibility...
Identifier
45755, 2020-038AB
Orbit
LEO
Country
Flag of USUS
Related business
Manufacturer
SpaceX/Seattle
Mission
Operational Commercial Communications
Bus & Motor
STARLINK, Unknown motor
Mass
260 kg wet, ~248 kg dry
Launch date (UTC)
2020-06-13 (6 years ago)
Launch vehicle
FALCON 9
Launch site
Air Force Eastern Test Range (AFETR)
Object type
Payload
Rocket body
Debris
Shape & HBR
Box + 1 Pan, 10.1 m
Radar Cross Section
13.562 m², Large (>1 m²)

Expand to show TLE details & history
Last TLE update: 18 hours ago

TLE from 18 hours ago
0 STARLINK-1478
1 45755U 20038AB  25348.01146913  .00008760  00000-0  60608-3 0  9990
2 45755  53.0530 241.2394 0001507  95.1849 264.9312 15.06408608303559
Epoch: 2025-12-14T00:16Z
TLE epoch observation values (Epoch: 2025-12-14T00:16:30.932Z)
Latitude
-0.00004°
Longitude
154.17998°
Altitude
548.157 km
Speed
7.589 km/s
True Right ascension
16h 04m 57s
True Declination
0° 00' 00"
Sunlit
Object was in daylight at epoch
Visualization orbit readout
Latitude
Unknown
Longitude
Unknown
Altitude
Unknown
Speed
Unknown
Apparent Right ascension
Unknown
Apparent Declination
Unknown
Sunlit
N/A
Visualization observer readout
Local Sidereal Time
17:03:43
Azimuth
Unknown
Elevation
Unknown
Doppler factor
Unknown
Orbital elements
Apogee altitude
548.5 km
Perigee altitude
546.412 km
Semi-major axis
6,925.593 km
Eccentricity
0.00015
Inclination
53.053°
RAAN
241.2394°
Arg. of periapsis
95.1849°
True anomaly
264.914°
Mean anomaly
264.9312°
Eccentric anomaly
264.9226°
Mean motion
3.7658 °/min
Orbital period
95.6 mins
BSTAR
0.00060608
Loading maneuver chart data...
Computing Atmospheric mass density...
Loading historical data...
Loading historical data...
Loading historical data...
Loading historical data...
Loading historical data...
Loading historical data...
Loading historical data...

Documentation

Showing up to 5 results
|